,,,PA_Meas_PMT16A,,PR_Meas_QMR101_102,,RH_Meas_QMH101,,SR_Meas_QMS101,,TA_Meas_QMH101,,GenWind,,GenWind,
date,time,status,PA,status,PR,status,RH,status,SR,status,TA,status,DirAvg,status,SpdAvg,
2008-07-16, 06:24:04,VALID,1003.5,VALID,0,VALID,92.1798,VALID,38.0128,VALID,24.7567,VALID,54,VALID,0.629687,
2008-07-16, 06:25:04,VALID,1003.49,VALID,0,VALID,92.0501,VALID,39.2195,VALID,24.8151,VALID,57,VALID,1.08203,
2008-07-16, 06:26:04,VALID,1003.52,VALID,0,VALID,91.7373,VALID,40.5269,VALID,24.893,VALID,30,VALID,0.947266,
2008-07-16, 06:27:04,VALID,1003.55,VALID,0,VALID,91.394,VALID,41.5325,VALID,24.9319,VALID,27,VALID,1.08672,
2008-07-16, 06:28:04,VALID,1003.55,VALID,0,VALID,91.1651,VALID,42.6387,VALID,25.0098,VALID,32,VALID,0.623828,
2008-07-16, 06:29:04,VALID,1003.53,VALID,0,VALID,90.8752,VALID,43.7449,VALID,25.0488,VALID,26,VALID,0.719922,
2008-07-16, 06:30:04,VALID,1003.55,VALID,0,VALID,90.6387,VALID,44.9516,VALID,25.0663,VALID,3,VALID,0.946875,
2008-07-16, 06:31:04,VALID,1003.51,VALID,0,VALID,90.2649,VALID,46.0578,VALID,25.1072,VALID,32,VALID,0.912891,
2008-07-16, 06:32:04,VALID,1003.57,VALID,0,VALID,89.9064,VALID,47.164,VALID,25.1656,VALID,31,VALID,0.835156,
2008-07-16, 06:33:04,VALID,1003.55,VALID,0,VALID,89.2808,VALID,48.1697,VALID,25.1851,VALID,12,VALID,1.13477,
2008-07-16, 06:34:04,VALID,1003.61,VALID,0,VALID,88.9299,VALID,49.2758,VALID,25.2649,VALID,10,VALID,0.732031,
2008-07-16, 06:35:04,VALID,1003.63,VALID,0,VALID,88.2738,VALID,50.4826,VALID,25.3214,VALID,19,VALID,0.482812,
2008-07-16, 06:36:04,VALID,1003.65,VALID,0,VALID,87.0837,VALID,51.4882,VALID,25.4207,VALID,356,VALID,0.713672,
2008-07-16, 06:37:04,VALID,1003.67,VALID,0,VALID,86.4123,VALID,52.5944,VALID,25.4948,VALID,32,VALID,0.945703,
2008-07-16, 06:38:04,VALID,1003.73,VALID,0,VALID,86.0767,VALID,53.7006,VALID,25.6525,VALID,20,VALID,0.430859,
2008-07-16, 06:39:04,VALID,1003.74,VALID,0,VALID,85.062,VALID,54.6057,VALID,25.7499,VALID,348,VALID,1.27773,
2008-07-16, 06:40:04,VALID,1003.71,VALID,0,VALID,84.5967,VALID,55.5107,VALID,25.8278,VALID,29,VALID,0.888672,
2008-07-16, 06:41:04,VALID,1003.72,VALID,0,VALID,84.5356,VALID,56.1141,VALID,25.9057,VALID,352,VALID,0.900391,
2008-07-16, 06:42:04,VALID,1003.72,VALID,0,VALID,82.9107,VALID,56.6169,VALID,26.0246,VALID,6,VALID,1.62969,
2008-07-16, 06:43:04,VALID,1003.71,VALID,0,VALID,82.842,VALID,57.1198,VALID,26.1005,VALID,358,VALID,1.18867,
2008-07-16, 06:44:04,VALID,1003.69,VALID,0,VALID,83.9177,VALID,57.4214,VALID,26.159,VALID,20,VALID,1.08711,
2008-07-16, 06:45:04,VALID,1003.68,VALID,0,VALID,83.4371,VALID,57.8237,VALID,26.159,VALID,12,VALID,1.0293,
2008-07-16, 06:46:04,VALID,1003.64,VALID,0,VALID,83.1853,VALID,58.2259,VALID,26.1784,VALID,19,VALID,1.1125,
2008-07-16, 06:47:04,VALID,1003.64,VALID,0,VALID,82.8115,VALID,58.7288,VALID,26.1979,VALID,355,VALID,1.00312,
2008-07-16, 06:48:04,VALID,1003.63,VALID,0,VALID,82.4301,VALID,59.6338,VALID,26.2174,VALID,345,VALID,1.03906,
2008-07-16, 06:49:04,VALID,1003.64,VALID,0,VALID,82.5597,VALID,60.5389,VALID,26.2174,VALID,349,VALID,1.35312,
2008-07-16, 06:50:04,VALID,1003.66,VALID,0,VALID,82.8039,VALID,61.5445,VALID,26.1979,VALID,348,VALID,1.38828,
2008-07-16, 06:51:04,VALID,1003.65,VALID,0,VALID,81.9571,VALID,62.1479,VALID,26.1979,VALID,13,VALID,1.82773,
2008-07-16, 06:52:04,VALID,1003.68,VALID,0,VALID,81.8655,VALID,62.8518,VALID,26.2564,VALID,48,VALID,0.932422,
2008-07-16, 06:53:04,VALID,1003.68,VALID,0,VALID,82.4606,VALID,63.7569,VALID,26.3538,VALID,357,VALID,0.860547,
2008-07-16, 06:54:04,VALID,1003.64,VALID,0,VALID,82.0562,VALID,64.3603,VALID,26.3713,VALID,4,VALID,1.03281,
2008-07-16, 06:55:04,VALID,1003.67,VALID,0,VALID,81.1255,VALID,65.2654,VALID,26.4122,VALID,52,VALID,1.22734,
2008-07-16, 06:56:04,VALID,1003.66,VALID,0,VALID,81.69,VALID,78.4391,VALID,26.4707,VALID,359,VALID,1.32617,
2008-07-16, 06:57:04,VALID,1003.64,VALID,0,VALID,81.8197,VALID,101.87,VALID,26.5096,VALID,352,VALID,0.94375,
2008-07-16, 06:58:04,VALID,1003.68,VALID,0,VALID,81.3773,VALID,141.794,VALID,26.5486,VALID,56,VALID,0.685547,
2008-07-16, 06:59:04,VALID,1003.69,VALID,0,VALID,81.1408,VALID,171.058,VALID,26.607,VALID,356,VALID,1.25469,
2008-07-16, 07:00:04,VALID,1003.75,VALID,0,VALID,80.5305,VALID,174.778,VALID,26.6245,VALID,357,VALID,1.39063,
2008-07-16, 07:01:04,VALID,1003.81,VALID,0,VALID,79.882,VALID,178.198,VALID,26.7045,VALID,28,VALID,1.72539,
2008-07-16, 07:02:04,VALID,1003.85,VALID,0,VALID,80.5686,VALID,181.214,VALID,26.7434,VALID,8,VALID,1.96797,
2008-07-16, 07:03:04,VALID,1003.88,VALID,0,VALID,79.8515,VALID,184.03,VALID,26.7434,VALID,3,VALID,1.61641,
2008-07-16, 07:04:04,VALID,1003.91,VALID,0,VALID,79.2717,VALID,185.84,VALID,26.7824,VALID,26,VALID,1.26211,
2008-07-16, 07:05:04,VALID,1003.88,VALID,0,VALID,79.7828,VALID,187.55,VALID,26.8388,VALID,335,VALID,0.953516,
2008-07-16, 07:06:04,VALID,1003.9,VALID,0,VALID,78.8369,VALID,188.656,VALID,26.8798,VALID,52,VALID,0.669531,
2008-07-16, 07:07:04,VALID,1003.91,VALID,0,VALID,79.7142,VALID,190.868,VALID,26.9793,VALID,63,VALID,0.665625,
2008-07-16, 07:08:04,VALID,1003.86,VALID,0,VALID,79.4166,VALID,194.891,VALID,26.9752,VALID,34,VALID,1.16953,
2008-07-16, 07:09:04,VALID,1003.83,VALID,0,VALID,79.6684,VALID,199.316,VALID,27.0747,VALID,27,VALID,0.966016,
2008-07-16, 07:10:04,VALID,1003.84,VALID,0,VALID,78.3867,VALID,202.735,VALID,27.1136,VALID,28,VALID,1.175,
2008-07-16, 07:11:04,VALID,1003.85,VALID,0,VALID,79.7828,VALID,204.847,VALID,27.0726,VALID,14,VALID,1.03828,
2008-07-16, 07:12:04,VALID,1003.86,VALID,0,VALID,79.5158,VALID,208.065,VALID,27.0531,VALID,328,VALID,0.841797,
2008-07-16, 07:13:04,VALID,1003.86,VALID,0,VALID,79.4929,VALID,209.975,VALID,27.0552,VALID,350,VALID,1.27266,
2008-07-16, 07:14:04,VALID,1003.88,VALID,0,VALID,79.5845,VALID,211.786,VALID,27.0336,VALID,15,VALID,1.03594,
2008-07-16, 07:15:04,VALID,1003.89,VALID,0,VALID,79.2107,VALID,215.406,VALID,27.0726,VALID,13,VALID,0.758203,
2008-07-16, 07:16:04,VALID,1003.89,VALID,0,VALID,79.7523,VALID,219.931,VALID,27.0921,VALID,347,VALID,0.864844,
2008-07-16, 07:17:04,VALID,1003.91,VALID,0,VALID,79.9736,VALID,224.456,VALID,27.1116,VALID,335,VALID,1.31758,
2008-07-16, 07:18:04,VALID,1003.92,VALID,0,VALID,80.3245,VALID,227.473,VALID,27.1526,VALID,358,VALID,1.40195,
2008-07-16, 07:19:04,VALID,1003.9,VALID,0,VALID,79.9812,VALID,230.189,VALID,27.0531,VALID,27,VALID,1.85625,
2008-07-16, 07:20:04,VALID,1003.89,VALID,0,VALID,80.7593,VALID,233.909,VALID,27.0552,VALID,16,VALID,0.99375,
2008-07-16, 07:21:04,VALID,1003.91,VALID,0,VALID,81.362,VALID,237.429,VALID,26.8993,VALID,31,VALID,1.40234,
2008-07-16, 07:22:04,VALID,1003.89,VALID,0,VALID,81.9952,VALID,240.949,VALID,26.8798,VALID,2,VALID,1.18477,
2008-07-16, 07:23:04,VALID,1003.88,VALID,0,VALID,82.0028,VALID,245.776,VALID,26.9578,VALID,355,VALID,1.36445,
2008-07-16, 07:24:04,VALID,1003.9,VALID,0,VALID,82.3309,VALID,249.597,VALID,26.9752,VALID,315,VALID,0.427734,
2008-07-16, 07:25:04,VALID,1003.93,VALID,0,VALID,82.3766,VALID,251.709,VALID,27.0552,VALID,28,VALID,1.23438,
2008-07-16, 07:26:04,VALID,1003.92,VALID,0,VALID,81.2247,VALID,253.016,VALID,27.1136,VALID,290,VALID,0.660547,
2008-07-16, 07:27:04,VALID,1003.95,VALID,0,VALID,81.2247,VALID,255.631,VALID,27.1526,VALID,353,VALID,1.10938,
2008-07-16, 07:28:04,VALID,1003.94,VALID,0,VALID,79.8439,VALID,259.251,VALID,27.1331,VALID,54,VALID,1.4082,
2008-07-16, 07:29:04,VALID,1003.94,VALID,0,VALID,81.5375,VALID,263.374,VALID,27.1721,VALID,339,VALID,0.911719,
2008-07-16, 07:30:04,VALID,1003.93,VALID,0,VALID,80.9882,VALID,267.598,VALID,27.2111,VALID,256,VALID,0.739844,
2008-07-16, 07:31:04,VALID,1003.92,VALID,0,VALID,80.9501,VALID,272.224,VALID,27.3085,VALID,339,VALID,0.603125,
2008-07-16, 07:32:04,VALID,1003.95,VALID,0,VALID,81.034,VALID,274.939,VALID,27.408,VALID,274,VALID,0.684766,
2008-07-16, 07:33:04,VALID,1003.97,VALID,0,VALID,78.9971,VALID,275.542,VALID,27.5034,VALID,275,VALID,1.00156,
2008-07-16, 07:34:04,VALID,1004.01,VALID,0,VALID,78.608,VALID,278.76,VALID,27.6029,VALID,5,VALID,0.223047,
2008-07-16, 07:35:04,VALID,1004.03,VALID,0,VALID,79.4624,VALID,280.47,VALID,27.7178,VALID,38,VALID,0.253516,
2008-07-16, 07:36:04,VALID,1004.03,VALID,0,VALID,80.1719,VALID,282.984,VALID,27.8563,VALID,33,VALID,0.0738281,
2008-07-16, 07:37:04,VALID,1004.06,VALID,0,VALID,78.8292,VALID,288.213,VALID,27.8932,VALID,33,VALID,1.04336,
2008-07-16, 07:38:04,VALID,1004.03,VALID,0,VALID,78.8216,VALID,293.945,VALID,27.9733,VALID,3,VALID,0.762891,
2008-07-16, 07:39:04,VALID,1004.03,VALID,0,VALID,78.0206,VALID,298.873,VALID,28.0707,VALID,348,VALID,0.494141,
2008-07-16, 07:40:04,VALID,1004.06,VALID,0,VALID,77.0593,VALID,302.896,VALID,28.0707,VALID,37,VALID,0.5375,
2008-07-16, 07:41:04,VALID,1004.05,VALID,0,VALID,76.8762,VALID,306.516,VALID,28.0707,VALID,79,VALID,1.21016,
2008-07-16, 07:42:04,VALID,1004.07,VALID,0,VALID,77.7001,VALID,304.907,VALID,28.0902,VALID,352,VALID,0.818359,
2008-07-16, 07:43:04,VALID,1004.09,VALID,0,VALID,77.1585,VALID,308.326,VALID,28.2288,VALID,354,VALID,0.413672,
2008-07-16, 07:44:04,VALID,1004.08,VALID,0,VALID,76.6779,VALID,317.276,VALID,28.2656,VALID,64,VALID,0.569531,
2008-07-16, 07:45:04,VALID,1004.11,VALID,0,VALID,76.2659,VALID,327.131,VALID,28.2656,VALID,35,VALID,0.501953,
2008-07-16, 07:46:04,VALID,1004.13,VALID,0,VALID,76.4185,VALID,330.349,VALID,28.4021,VALID,46,VALID,0.674219,
2008-07-16, 07:47:04,VALID,1004.13,VALID,0,VALID,76.2201,VALID,332.361,VALID,28.5364,VALID,102,VALID,0.516797,
2008-07-16, 07:48:04,VALID,1004.16,VALID,0,VALID,75.3123,VALID,362.63,VALID,28.6729,VALID,63,VALID,0.808984,
2008-07-16, 07:49:04,VALID,1004.16,VALID,0,VALID,73.2525,VALID,377.815,VALID,28.5971,VALID,79,VALID,1.50937,
2008-07-16, 07:50:04,VALID,1004.18,VALID,0,VALID,74.2137,VALID,383.849,VALID,28.5559,VALID,115,VALID,0.754297,
2008-07-16, 07:51:04,VALID,1004.19,VALID,0,VALID,75.7243,VALID,387.67,VALID,28.4606,VALID,124,VALID,1.63555,
2008-07-16, 07:52:04,VALID,1004.23,VALID,0,VALID,75.976,VALID,385.759,VALID,28.3436,VALID,106,VALID,1.14492,
2008-07-16, 07:53:04,VALID,1004.23,VALID,0,VALID,76.3041,VALID,360.015,VALID,28.3046,VALID,67,VALID,1.10391,
2008-07-16, 07:54:04,VALID,1004.21,VALID,0,VALID,76.4109,VALID,343.121,VALID,28.283,VALID,58,VALID,0.760547,
2008-07-16, 07:55:04,VALID,1004.24,VALID,0,VALID,75.8768,VALID,175.885,VALID,28.322,VALID,72,VALID,1.05508,
2008-07-16, 07:56:04,VALID,1004.26,VALID,0,VALID,76.4261,VALID,259.251,VALID,28.283,VALID,63,VALID,0.703516,
2008-07-16, 07:57:04,VALID,1004.22,VALID,0,VALID,76.7313,VALID,353.78,VALID,28.2809,VALID,101,VALID,0.642969,
2008-07-16, 07:58:04,VALID,1004.23,VALID,0,VALID,76.9678,VALID,366.25,VALID,28.3805,VALID,31,VALID,1.12266,
2008-07-16, 07:59:04,VALID,1004.27,VALID,0,VALID,75.5869,VALID,371.178,VALID,28.4584,VALID,81,VALID,1.22539,
2008-07-16, 08:00:04,VALID,1004.26,VALID,0,VALID,76.7236,VALID,381.737,VALID,28.4779,VALID,73,VALID,0.546094,
2008-07-16, 08:01:04,VALID,1004.24,VALID,0,VALID,75.8463,VALID,399.637,VALID,28.4194,VALID,127,VALID,1.64063,
2008-07-16, 08:02:04,VALID,1004.3,VALID,0,VALID,77.7993,VALID,291.13,VALID,28.4368,VALID,74,VALID,0.289063,
2008-07-16, 08:03:04,VALID,1004.3,VALID,0,VALID,75.915,VALID,426.286,VALID,28.5754,VALID,75,VALID,0.987109,
2008-07-16, 08:04:04,VALID,1004.34,VALID,0,VALID,75.8692,VALID,334.271,VALID,28.7119,VALID,47,VALID,0.688281,
2008-07-16, 08:05:04,VALID,1004.31,VALID,0,VALID,74.9385,VALID,379.726,VALID,28.8093,VALID,89,VALID,1.03477,
2008-07-16, 08:06:04,VALID,1004.3,VALID,0,VALID,75.0224,VALID,292.94,VALID,28.8093,VALID,32,VALID,1.46563,
2008-07-16, 08:07:04,VALID,1004.35,VALID,0,VALID,75.6175,VALID,286.102,VALID,28.8288,VALID,50,VALID,0.611328,
2008-07-16, 08:08:04,VALID,1004.35,VALID,0,VALID,75.8692,VALID,199.316,VALID,28.9068,VALID,89,VALID,0.83125,
2008-07-16, 08:09:04,VALID,1004.31,VALID,0,VALID,74.0688,VALID,160.599,VALID,28.7725,VALID,88,VALID,1.59805,
2008-07-16, 08:10:04,VALID,1004.32,VALID,0,VALID,75.3962,VALID,162.309,VALID,28.5754,VALID,37,VALID,1.00781,
2008-07-16, 08:11:04,VALID,1004.29,VALID,0,VALID,75.8463,VALID,174.98,VALID,28.4801,VALID,115,VALID,0.677734,
2008-07-16, 08:12:04,VALID,1004.29,VALID,0,VALID,75.2894,VALID,176.086,VALID,28.3805,VALID,105,VALID,1.28242,
2008-07-16, 08:13:04,VALID,1004.32,VALID,0,VALID,76.2201,VALID,350.562,VALID,28.283,VALID,91,VALID,0.630469,
2008-07-16, 08:14:04,VALID,1004.33,VALID,0,VALID,76.3193,VALID,361.725,VALID,28.3025,VALID,12,VALID,1.71758,
2008-07-16, 08:15:04,VALID,1004.34,VALID,0,VALID,76.5253,VALID,379.424,VALID,28.361,VALID,54,VALID,0.615234,
2008-07-16, 08:16:04,VALID,1004.34,VALID,0,VALID,77.1204,VALID,383.748,VALID,28.5169,VALID,120,VALID,1.01992,
2008-07-16, 08:17:04,VALID,1004.36,VALID,0,VALID,77.2729,VALID,266.391,VALID,28.5364,VALID,102,VALID,1.06211,
2008-07-16, 08:18:04,VALID,1004.35,VALID,0,VALID,75.9913,VALID,327.131,VALID,28.4,VALID,62,VALID,1.29727,
2008-07-16, 08:19:04,VALID,1004.34,VALID,0,VALID,76.8305,VALID,213.897,VALID,28.4389,VALID,87,VALID,0.730859,
2008-07-16, 08:20:04,VALID,1004.33,VALID,0,VALID,77.3645,VALID,174.477,VALID,28.4389,VALID,88,VALID,0.802734,
2008-07-16, 08:21:04,VALID,1004.29,VALID,0,VALID,78.3639,VALID,292.739,VALID,28.4584,VALID,94,VALID,1.13555,
2008-07-16, 08:22:05,VALID,1004.27,VALID,0,VALID,75.2436,VALID,447.203,VALID,28.4411,VALID,113,VALID,1.47109,
2008-07-16, 08:23:05,VALID,1004.28,VALID,0,VALID,77.7459,VALID,234.211,VALID,28.4194,VALID,86,VALID,0.557031,
2008-07-16, 08:24:05,VALID,1004.25,VALID,0,VALID,77.4789,VALID,251.307,VALID,28.5364,VALID,71,VALID,0.317187,
2008-07-16, 08:25:05,VALID,1004.24,VALID,0,VALID,75.5183,VALID,444.187,VALID,28.6361,VALID,73,VALID,1.66602,
2008-07-16, 08:26:05,VALID,1004.25,VALID,0,VALID,75.9608,VALID,457.763,VALID,28.5754,VALID,39,VALID,1.21094,
2008-07-16, 08:27:05,VALID,1004.26,VALID,0,VALID,75.3428,VALID,477.171,VALID,28.6144,VALID,79,VALID,1.32383,
2008-07-16, 08:28:05,VALID,1004.26,VALID,0,VALID,74.6562,VALID,421.359,VALID,28.6534,VALID,47,VALID,1.45938,
2008-07-16, 08:29:05,VALID,1004.25,VALID,0,VALID,74.8698,VALID,473.35,VALID,28.5949,VALID,113,VALID,1.65352,
2008-07-16, 08:30:05,VALID,1004.23,VALID,0,VALID,76.0752,VALID,336.584,VALID,28.6729,VALID,97,VALID,0.821484,
2008-07-16, 08:31:05,VALID,1004.27,VALID,0,VALID,74.9614,VALID,208.568,VALID,28.6729,VALID,71,VALID,2.09258,
2008-07-16, 08:32:05,VALID,1004.24,VALID,0,VALID,75.3504,VALID,186.745,VALID,28.5754,VALID,75,VALID,1.93242,
2008-07-16, 08:33:05,VALID,1004.22,VALID,0,VALID,75.7166,VALID,229.887,VALID,28.4389,VALID,93,VALID,1.88906,
2008-07-16, 08:34:05,VALID,1004.24,VALID,0,VALID,77.5857,VALID,539.922,VALID,28.4,VALID,62,VALID,0.955859,
2008-07-16, 08:35:05,VALID,1004.25,VALID,0,VALID,77.2806,VALID,524.536,VALID,28.4996,VALID,68,VALID,0.606641,
2008-07-16, 08:36:05,VALID,1004.23,VALID,0,VALID,76.4338,VALID,518.1,VALID,28.5949,VALID,59,VALID,1.17188,
2008-07-16, 08:37:05,VALID,1004.18,VALID,0,VALID,75.0453,VALID,517.195,VALID,28.7314,VALID,116,VALID,1.23281,
2008-07-16, 08:38:05,VALID,1004.21,VALID,0,VALID,74.5494,VALID,514.178,VALID,28.7335,VALID,90,VALID,1.83047,
2008-07-16, 08:39:05,VALID,1004.19,VALID,0,VALID,75.6022,VALID,511.363,VALID,28.6534,VALID,114,VALID,2.43789,
2008-07-16, 08:40:05,VALID,1004.18,VALID,0,VALID,76.243,VALID,513.273,VALID,28.6361,VALID,126,VALID,1.72891,
2008-07-16, 08:41:05,VALID,1004.16,VALID,0,VALID,75.6556,VALID,515.687,VALID,28.6361,VALID,109,VALID,1.38828,
2008-07-16, 08:42:05,VALID,1004.17,VALID,0,VALID,76.6245,VALID,522.424,VALID,28.6534,VALID,128,VALID,2.50781,
2008-07-16, 08:43:05,VALID,1004.16,VALID,0,VALID,76.4185,VALID,524.436,VALID,28.6945,VALID,122,VALID,2.15781,
2008-07-16, 08:44:05,VALID,1004.17,VALID,0,VALID,75.8768,VALID,531.777,VALID,28.6556,VALID,110,VALID,1.88828,
2008-07-16, 08:45:05,VALID,1004.13,VALID,0,VALID,76.3575,VALID,537.509,VALID,28.6166,VALID,128,VALID,2.13008,
2008-07-16, 08:46:05,VALID,1004.12,VALID,0,VALID,75.4115,VALID,543.945,VALID,28.6945,VALID,106,VALID,1.18242,
2008-07-16, 08:47:05,VALID,1004.08,VALID,0,VALID,77.601,VALID,544.85,VALID,28.831,VALID,93,VALID,0.749609,
2008-07-16, 08:48:05,VALID,1004.12,VALID,0,VALID,75.9837,VALID,556.716,VALID,29.026,VALID,57,VALID,1.29844,
2008-07-16, 08:49:05,VALID,1004.07,VALID,0,VALID,74.8164,VALID,547.766,VALID,29.1993,VALID,29,VALID,0.858594,
2008-07-16, 08:50:05,VALID,1004.11,VALID,0,VALID,75.4344,VALID,480.892,VALID,29.494,VALID,14,VALID,0.224219,
2008-07-16, 08:51:05,VALID,1004.12,VALID,0,VALID,73.2983,VALID,413.615,VALID,29.6478,VALID,87,VALID,1.08125,
2008-07-16, 08:52:05,VALID,1004.17,VALID,0,VALID,72.2608,VALID,151.247,VALID,29.6305,VALID,74,VALID,0.59375,
2008-07-16, 08:53:05,VALID,1004.2,VALID,0,VALID,72.2455,VALID,142.196,VALID,29.2773,VALID,101,VALID,2.33281,
2008-07-16, 08:54:05,VALID,1004.23,VALID,0,VALID,73.1152,VALID,140.587,VALID,29.0628,VALID,60,VALID,0.850781,
2008-07-16, 08:55:05,VALID,1004.2,VALID,0,VALID,73.2144,VALID,139.079,VALID,28.948,VALID,52,VALID,1.20234,
2008-07-16, 08:56:05,VALID,1004.18,VALID,0,VALID,74.6791,VALID,119.77,VALID,28.7704,VALID,101,VALID,0.81875,
2008-07-16, 08:57:05,VALID,1004.19,VALID,0,VALID,74.8775,VALID,83.3667,VALID,28.6144,VALID,99,VALID,0.973828,
2008-07-16, 08:58:05,VALID,1004.21,VALID,0,VALID,75.6404,VALID,67.4777,VALID,28.4801,VALID,76,VALID,1.13203,
2008-07-16, 08:59:05,VALID,1004.25,VALID,0,VALID,75.4878,VALID,63.6563,VALID,28.3415,VALID,87,VALID,1.91758,
2008-07-16, 09:00:05,VALID,1004.26,VALID,0,VALID,76.6397,VALID,68.4834,VALID,28.2072,VALID,104,VALID,1.63242,
2008-07-16, 09:01:05,VALID,1004.27,VALID,0,VALID,77.0593,VALID,75.4222,VALID,28.047,VALID,79,VALID,1.36445,
2008-07-16, 09:02:05,VALID,1004.28,VALID,0,VALID,77.5171,VALID,78.0368,VALID,27.9906,VALID,106,VALID,1.06953,
2008-07-16, 09:03:05,VALID,1004.33,VALID,0,VALID,77.2577,VALID,78.9419,VALID,27.93,VALID,85,VALID,1.47227,
2008-07-16, 09:04:05,VALID,1004.32,VALID,0,VALID,77.662,VALID,81.5565,VALID,27.9127,VALID,85,VALID,0.733203,
2008-07-16, 09:05:05,VALID,1004.32,VALID,0,VALID,78.1121,VALID,85.1768,VALID,27.9127,VALID,92,VALID,0.760938,
2008-07-16, 09:06:05,VALID,1004.35,VALID,0,VALID,78.0587,VALID,95.3337,VALID,27.8911,VALID,97,VALID,1.00508,
2008-07-16, 09:07:05,VALID,1004.33,VALID,0,VALID,78.6766,VALID,113.536,VALID,27.8932,VALID,83,VALID,0.621094,
2008-07-16, 09:08:05,VALID,1004.33,VALID,0,VALID,78.6614,VALID,132.844,VALID,27.9148,VALID,44,VALID,0.50625,
2008-07-16, 09:09:05,VALID,1004.35,VALID,0,VALID,78.7682,VALID,142.598,VALID,27.9538,VALID,34,VALID,0.242188,
2008-07-16, 09:10:05,VALID,1004.37,VALID,0,VALID,78.5393,VALID,143.302,VALID,27.9927,VALID,75,VALID,0.776563,
2008-07-16, 09:11:05,VALID,1004.34,VALID,0,VALID,78.6843,VALID,145.515,VALID,27.9711,VALID,83,VALID,0.759766,
2008-07-16, 09:12:05,VALID,1004.4,VALID,0,VALID,77.868,VALID,149.939,VALID,27.9516,VALID,110,VALID,1.49688,
2008-07-16, 09:13:05,VALID,1004.42,VALID,0,VALID,78.3867,VALID,168.342,VALID,27.9711,VALID,93,VALID,0.760938,
2008-07-16, 09:14:05,VALID,1004.44,VALID,0,VALID,78.6995,VALID,201.025,VALID,27.9711,VALID,104,VALID,0.857031,
2008-07-16, 09:15:05,VALID,1004.43,VALID,0,VALID,78.5241,VALID,227.876,VALID,28.0122,VALID,94,VALID,0.576172,
2008-07-16, 09:16:05,VALID,1004.43,VALID,0,VALID,78.8521,VALID,233.407,VALID,28.0491,VALID,57,VALID,0.721875,
2008-07-16, 09:17:05,VALID,1004.47,VALID,0,VALID,78.4401,VALID,254.927,VALID,28.1097,VALID,45,VALID,0.791016,
2008-07-16, 09:18:05,VALID,1004.49,VALID,0,VALID,77.7612,VALID,307.119,VALID,28.1271,VALID,96,VALID,1.33008,
2008-07-16, 09:19:05,VALID,1004.49,VALID,0,VALID,77.4102,VALID,276.649,VALID,28.1466,VALID,43,VALID,0.887891,
2008-07-16, 09:20:05,VALID,1004.5,VALID,0,VALID,78.0206,VALID,258.849,VALID,28.1855,VALID,53,VALID,1.06445,
2008-07-16, 09:21:05,VALID,1004.47,VALID,0,VALID,77.4408,VALID,257.139,VALID,28.2656,VALID,103,VALID,0.712891,
2008-07-16, 09:22:05,VALID,1004.46,VALID,0,VALID,78.0511,VALID,243.765,VALID,28.2635,VALID,35,VALID,1.28984,
2008-07-16, 09:23:05,VALID,1004.46,VALID,0,VALID,78.2265,VALID,221.138,VALID,28.3415,VALID,96,VALID,0.452344,
2008-07-16, 09:24:05,VALID,1004.45,VALID,0,VALID,76.7084,VALID,194.891,VALID,28.3805,VALID,76,VALID,1.24297,
2008-07-16, 09:25:05,VALID,1004.45,VALID,0,VALID,77.4637,VALID,176.186,VALID,28.4,VALID,51,VALID,0.264844,
2008-07-16, 09:26:05,VALID,1004.44,VALID,0,VALID,77.5476,VALID,167.638,VALID,28.4389,VALID,106,VALID,1.03594,
2008-07-16, 09:27:05,VALID,1004.42,VALID,0,VALID,76.8381,VALID,167.84,VALID,28.361,VALID,115,VALID,1.51133,
2008-07-16, 09:28:05,VALID,1004.38,VALID,0,VALID,76.1439,VALID,166.834,VALID,28.283,VALID,98,VALID,1.4332,
2008-07-16, 09:29:05,VALID,1004.39,VALID,0,VALID,76.5863,VALID,166.231,VALID,28.205,VALID,102,VALID,0.729688,
2008-07-16, 09:30:05,VALID,1004.36,VALID,0,VALID,76.9525,VALID,179.103,VALID,28.1466,VALID,118,VALID,2.02187,
2008-07-16, 09:31:05,VALID,1004.35,VALID,0,VALID,77.2424,VALID,176.287,VALID,28.1271,VALID,84,VALID,0.844531,
2008-07-16, 09:32:05,VALID,1004.33,VALID,0,VALID,77.3874,VALID,168.946,VALID,28.1292,VALID,114,VALID,0.825391,
2008-07-16, 09:33:05,VALID,1004.31,VALID,0,VALID,77.5171,VALID,158.889,VALID,28.1271,VALID,82,VALID,0.470313,
2008-07-16, 09:34:05,VALID,1004.3,VALID,0,VALID,77.2119,VALID,147.425,VALID,28.1466,VALID,48,VALID,0.679297,
2008-07-16, 09:35:05,VALID,1004.34,VALID,0,VALID,78.3105,VALID,138.475,VALID,28.1834,VALID,93,VALID,0.515625,
2008-07-16, 09:36:05,VALID,1004.32,VALID,0,VALID,78.0816,VALID,128.318,VALID,28.205,VALID,161,VALID,1.09258,
2008-07-16, 09:37:05,VALID,1004.37,VALID,0,VALID,77.4713,VALID,121.48,VALID,28.2245,VALID,132,VALID,1.17852,
2008-07-16, 09:38:05,VALID,1004.37,VALID,0,VALID,77.4255,VALID,115.547,VALID,28.2245,VALID,116,VALID,0.632031,
2008-07-16, 09:39:05,VALID,1004.4,VALID,0,VALID,78.3715,VALID,113.133,VALID,28.2635,VALID,121,VALID,0.308984,
2008-07-16, 09:40:05,VALID,1004.41,VALID,0,VALID,76.8076,VALID,118.664,VALID,28.2614,VALID,111,VALID,0.519531,
2008-07-16, 09:41:05,VALID,1004.41,VALID,0,VALID,77.3492,VALID,128.821,VALID,28.3003,VALID,110,VALID,0.350391,
2008-07-16, 09:42:05,VALID,1004.38,VALID,0,VALID,76.9754,VALID,131.939,VALID,28.2614,VALID,116,VALID,1.16719,
2008-07-16, 09:43:05,VALID,1004.38,VALID,0,VALID,76.8991,VALID,135.458,VALID,28.2029,VALID,146,VALID,1.16055,
2008-07-16, 09:44:05,VALID,1004.39,VALID,0,VALID,76.716,VALID,141.492,VALID,28.2029,VALID,139,VALID,0.710156,
2008-07-16, 09:45:05,VALID,1004.4,VALID,0,VALID,77.9748,VALID,146.922,VALID,28.1834,VALID,149,VALID,1.24375,
2008-07-16, 09:46:05,VALID,1004.4,VALID,0,VALID,78.0434,VALID,148.129,VALID,28.1639,VALID,144,VALID,1.0832,
2008-07-16, 09:47:05,VALID,1004.4,VALID,0,VALID,78.547,VALID,141.19,VALID,28.1639,VALID,171,VALID,1.55391,
2008-07-16, 09:48:05,VALID,1004.4,VALID,0,VALID,77.7993,VALID,130.933,VALID,28.1444,VALID,183,VALID,1.49609,
2008-07-16, 09:49:05,VALID,1004.4,VALID,0,VALID,78.0053,VALID,116.05,VALID,28.1466,VALID,165,VALID,1.77305,
2008-07-16, 09:50:05,VALID,1004.38,VALID,0,VALID,78.2037,VALID,102.071,VALID,28.0881,VALID,171,VALID,1.66523,
2008-07-16, 09:51:05,VALID,1004.37,VALID,0,VALID,78.9284,VALID,94.6297,VALID,28.0881,VALID,162,VALID,1.39609,
2008-07-16, 09:52:05,VALID,1004.38,VALID,0,VALID,78.9818,VALID,91.9145,VALID,28.0491,VALID,168,VALID,1.08984,
2008-07-16, 09:53:05,VALID,1004.34,VALID,0,VALID,79.3709,VALID,91.9145,VALID,28.0296,VALID,135,VALID,1.14922,
2008-07-16, 09:54:05,VALID,1004.3,VALID,0,VALID,80.0117,VALID,95.3337,VALID,28.0296,VALID,164,VALID,0.984766,
2008-07-16, 09:55:05,VALID,1004.3,VALID,0,VALID,79.6837,VALID,100.362,VALID,28.0101,VALID,142,VALID,1.07656,
2008-07-16, 09:56:05,VALID,1004.28,VALID,0,VALID,80.1719,VALID,105.088,VALID,28.0296,VALID,143,VALID,0.703125,
2008-07-16, 09:57:05,VALID,1004.28,VALID,0,VALID,78.8597,VALID,106.898,VALID,28.0101,VALID,130,VALID,0.80625,
2008-07-16, 09:58:05,VALID,1004.27,VALID,0,VALID,78.8445,VALID,108.105,VALID,28.0491,VALID,148,VALID,0.591016,